Location: Cardiff
(53.7833°N, 113.6000°W)
Time: 05:43:36
(UTC+00:00)

PCSat - Visible Passes

Search period start: 05 December 2023 00:00
Search period end: 15 December 2023 00:00
Orbit: 784 x 792 km, 67.1° (Epoch: 04 December)

Date Brightness Start Highest point End Pass type
(mag) Time Alt. Az. Time Alt. Az. Time Alt. Az.
05 Dec 12.0 10:46:34 17° E 10:46:34 17° E 10:49:05 10° ENE visible
05 Dec 9.5 12:27:17 65° SSW 12:28:05 82° SE 12:33:33 10° NE visible
05 Dec 10.3 14:08:00 14° W 14:12:01 33° NNW 14:16:54 10° NE visible
06 Dec 12.5 10:16:35 11° ENE 10:16:35 11° ENE 10:16:51 10° ENE visible
06 Dec 10.0 11:57:18 59° E 11:57:18 59° E 12:02:00 10° NE visible
06 Dec 10.1 13:38:00 26° W 13:40:20 38° NNW 13:45:24 10° NE visible
07 Dec 11.0 11:27:10 34° ENE 11:27:10 34° ENE 11:30:27 10° NE visible
07 Dec 9.9 13:07:52 42° WNW 13:08:41 45° NW 13:13:55 10° NE visible
07 Dec 10.9 14:49:10 10° WNW 14:53:22 22° NNW 14:57:34 10° NE visible
08 Dec 11.8 10:56:56 21° ENE 10:56:56 21° ENE 10:58:50 10° NE visible
08 Dec 9.8 12:37:37 52° NNW 12:37:37 52° NNW 12:42:25 10° NE visible
08 Dec 10.8 14:18:19 14° WNW 14:21:35 24° NNW 14:25:56 10° NE visible
09 Dec 12.4 10:26:36 13° ENE 10:26:36 13° ENE 10:27:09 10° NE visible
09 Dec 10.4 12:07:17 41° NNE 12:07:17 41° NNE 12:10:56 10° NE visible
09 Dec 10.7 13:47:58 22° NW 13:49:50 26° NNW 13:54:22 10° NE visible
10 Dec 11.2 11:36:53 29° NE 11:36:53 29° NE 11:39:25 10° NE visible
10 Dec 10.5 13:17:34 28° NW 13:18:05 29° NNW 13:22:48 10° NE visible
11 Dec 11.8 11:06:25 19° NE 11:06:25 19° NE 11:07:55 10° NE visible
11 Dec 10.6 12:47:06 32° NNW 12:47:06 32° NNW 12:51:16 10° NE visible
11 Dec 11.1 14:27:47 12° NW 14:31:19 20° N 14:35:19 10° NE visible
12 Dec 12.4 10:35:56 12° NE 10:35:56 12° NE 10:36:23 10° NE visible
12 Dec 10.9 12:16:36 29° N 12:16:36 29° N 12:19:46 10° NE visible
12 Dec 11.1 13:57:16 17° NW 13:59:31 21° N 14:03:35 10° NE visible
13 Dec 11.4 11:46:04 23° NNE 11:46:04 23° NNE 11:48:16 10° NE visible
13 Dec 10.9 13:26:44 21° NNW 13:27:42 22° NNW 13:31:55 10° NE visible
14 Dec 11.9 11:15:30 17° NNE 11:15:30 17° NNE 11:16:46 10° NE visible
14 Dec 11.0 12:56:10 24° NNW 12:56:10 24° NNW 13:00:17 10° NE visible
14 Dec 11.2 14:37:00 10° NW 14:41:05 21° N 14:45:09 10° ENE visible
